When you browse on this site, cookies collect data to enhance your experience and personalize the content and advertising you see.
Visit our Privacy Policy to learn more. By continuing to use the site, you agree to this use of cookies and data.
  • In Latvia
  • List of Countries
  • For 7 days
  • Water Temperature
  • Satellite Maps
  • Weather Map
  • Weather Widgets
  • user-avatar
    Login

    Hourly Weather Gossau

    Today, 21 July, Sunday

    Time Temperature Precipitation Wind Pressure Humidity
    00:00 +20°C° 0.6 mm 1 mps 709 mmHg 84%
    01:00 +19°C° 0 mm 2 mps 709 mmHg 86%
    02:00 +18°C° 1.5 mm 2 mps 709 mmHg 88%
    03:00 +18°C° 1.5 mm 2 mps 709 mmHg 91%
    04:00 +18°C° 1.5 mm 2 mps 709 mmHg 93%
    05:00 +18°C° 2.9 mm 2 mps 709 mmHg 94%
    06:00 +18°C° 2.9 mm 2 mps 709 mmHg 94%
    07:00 +19°C° 2.9 mm 2 mps 710 mmHg 95%
    08:00 +20°C° 1.2 mm 2 mps 710 mmHg 91%
    09:00 +21°C° 1.2 mm 2 mps 711 mmHg 88%
    10:00 +23°C° 1.2 mm 2 mps 711 mmHg 84%
    11:00 +24°C° 0.6 mm 2 mps 711 mmHg 81%
    12:00 +24°C° 0.6 mm 2 mps 711 mmHg 78%
    13:00 +25°C° 0.6 mm 2 mps 711 mmHg 74%
    14:00 +25°C° 0.5 mm 2 mps 711 mmHg 74%
    15:00 +25°C° 0.5 mm 2 mps 711 mmHg 73%
    16:00 +25°C° 0.5 mm 2 mps 712 mmHg 73%
    17:00 +25°C° 0.2 mm 1 mps 711 mmHg 77%
    18:00 +24°C° 0.2 mm 1 mps 711 mmHg 80%
    19:00 +23°C° 0.2 mm 1 mps 711 mmHg 84%
    20:00 +22°C° 0 mm 1 mps 712 mmHg 85%
    21:00 +20°C° 0 mm 1 mps 712 mmHg 86%
    22:00 +19°C° 0 mm 1 mps 712 mmHg 87%
    23:00 +19°C° 0 mm 1 mps 712 mmHg 87%

    Tomorrow, 22 July, Monday

    Time Temperature Precipitation Wind Pressure Humidity
    00:00 +18°C° 0 mm 1 mps 712 mmHg 88%
    01:00 +18°C° 0 mm 1 mps 712 mmHg 89%
    02:00 +16°C° 0 mm 1 mps 712 mmHg 89%
    03:00 +16°C° 0 mm 1 mps 712 mmHg 90%
    04:00 +16°C° 0 mm 1 mps 712 mmHg 90%
    05:00 +16°C° 0 mm 0 mps 712 mmHg 89%
    06:00 +17°C° 0 mm 0 mps 712 mmHg 88%
    07:00 +18°C° 0 mm 0 mps 712 mmHg 86%
    08:00 +19°C° 0 mm 0 mps 713 mmHg 80%
    09:00 +21°C° 0 mm 0 mps 713 mmHg 74%
    10:00 +25°C° 0 mm 1 mps 713 mmHg 68%
    11:00 +26°C° 0 mm 1 mps 713 mmHg 64%
    12:00 +27°C° 0 mm 1 mps 713 mmHg 61%
    13:00 +28°C° 0 mm 1 mps 713 mmHg 57%
    14:00 +28°C° 0 mm 1 mps 713 mmHg 57%
    15:00 +28°C° 0 mm 1 mps 713 mmHg 56%
    16:00 +28°C° 0 mm 1 mps 712 mmHg 56%
    17:00 +27°C° 0 mm 1 mps 712 mmHg 63%
    18:00 +25°C° 0 mm 1 mps 712 mmHg 70%
    19:00 +24°C° 0 mm 1 mps 712 mmHg 78%
    20:00 +23°C° 0 mm 1 mps 712 mmHg 81%
    21:00 +21°C° 0 mm 1 mps 712 mmHg 84%
    22:00 +20°C° 0 mm 1 mps 712 mmHg 87%
    23:00 +20°C° 0 mm 1 mps 712 mmHg 88%

    Day after tomorrow, 23 July, Tuesday

    Time Temperature Precipitation Wind Pressure Humidity
    00:00 +19°C° 0 mm 1 mps 712 mmHg 89%
    01:00 +19°C° 0 mm 1 mps 711 mmHg 89%
    02:00 +18°C° 0 mm 1 mps 711 mmHg 90%
    03:00 +18°C° 0 mm 1 mps 711 mmHg 91%
    04:00 +15°C° 0 mm 0 mps 711 mmHg 92%
    05:00 +16°C° 0 mm 0 mps 711 mmHg 90%
    06:00 +18°C° 0 mm 0 mps 711 mmHg 87%
    07:00 +19°C° 0 mm 0 mps 711 mmHg 85%
    08:00 +22°C° 0 mm 1 mps 711 mmHg 79%
    09:00 +24°C° 0 mm 1 mps 711 mmHg 73%
    10:00 +26°C° 0 mm 1 mps 711 mmHg 68%
    11:00 +27°C° 0 mm 1 mps 711 mmHg 64%
    12:00 +28°C° 0 mm 2 mps 711 mmHg 61%
    13:00 +29°C° 0 mm 2 mps 711 mmHg 58%
    14:00 +29°C° 0 mm 2 mps 710 mmHg 58%
    15:00 +30°C° 0 mm 2 mps 710 mmHg 58%
    16:00 +30°C° 0 mm 2 mps 710 mmHg 58%
    17:00 +29°C° 0 mm 2 mps 710 mmHg 66%
    18:00 +27°C° 0 mm 1 mps 710 mmHg 74%
    19:00 +26°C° 0 mm 1 mps 709 mmHg 81%
    20:00 +24°C° 0 mm 1 mps 709 mmHg 84%
    21:00 +23°C° 0 mm 1 mps 709 mmHg 86%
    22:00 +22°C° 0 mm 1 mps 710 mmHg 88%
    23:00 +21°C° 0 mm 1 mps 709 mmHg 88%

    24 July, Wednesday

    Time Temperature Precipitation Wind Pressure Humidity
    00:00 +21°C° 0 mm 1 mps 709 mmHg 88%
    01:00 +20°C° 0 mm 1 mps 709 mmHg 88%
    02:00 +20°C° 0 mm 1 mps 709 mmHg 88%
    03:00 +20°C° 0 mm 1 mps 709 mmHg 89%
    04:00 +20°C° 0 mm 1 mps 708 mmHg 89%
    05:00 +19°C° 0 mm 0 mps 709 mmHg 87%
    06:00 +20°C° 0 mm 0 mps 709 mmHg 85%
    07:00 +21°C° 0 mm 0 mps 709 mmHg 83%
    08:00 +25°C° 0 mm 1 mps 709 mmHg 77%
    09:00 +27°C° 0 mm 1 mps 709 mmHg 70%
    10:00 +29°C° 0 mm 1 mps 710 mmHg 64%
    11:00 +30°C° 0 mm 1 mps 709 mmHg 60%
    12:00 +30°C° 0 mm 1 mps 709 mmHg 57%
    13:00 +31°C° 0 mm 1 mps 709 mmHg 53%
    14:00 +31°C° 0 mm 1 mps 709 mmHg 52%
    15:00 +32°C° 0 mm 1 mps 709 mmHg 52%
    16:00 +32°C° 0 mm 1 mps 709 mmHg 51%
    17:00 +30°C° 0 mm 1 mps 709 mmHg 58%
    18:00 +29°C° 0 mm 1 mps 708 mmHg 65%
    19:00 +25°C° 0 mm 0 mps 708 mmHg 72%
    20:00 +26°C° 0.1 mm 1 mps 708 mmHg 74%
    21:00 +25°C° 0.1 mm 1 mps 708 mmHg 76%
    22:00 +23°C° 0.1 mm 1 mps 708 mmHg 77%
    23:00 +23°C° 0.1 mm 1 mps 708 mmHg 78%

    25 July, Thursday

    Time Temperature Precipitation Wind Pressure Humidity
    00:00 +23°C° 0.1 mm 1 mps 708 mmHg 79%
    01:00 +22°C° 0.1 mm 1 mps 708 mmHg 80%
    02:00 +22°C° 0 mm 1 mps 708 mmHg 81%
    03:00 +21°C° 0 mm 1 mps 707 mmHg 83%
    04:00 +21°C° 0 mm 1 mps 707 mmHg 84%
    05:00 +22°C° 0 mm 1 mps 707 mmHg 83%
    06:00 +23°C° 0 mm 1 mps 707 mmHg 82%
    07:00 +22°C° 0 mm 0 mps 707 mmHg 81%
    08:00 +24°C° 0 mm 0 mps 708 mmHg 74%
    09:00 +27°C° 0 mm 1 mps 708 mmHg 68%
    10:00 +29°C° 0 mm 1 mps 708 mmHg 62%
    11:00 +30°C° 0 mm 1 mps 707 mmHg 59%
    12:00 +31°C° 0 mm 1 mps 707 mmHg 57%
    13:00 +32°C° 0 mm 1 mps 707 mmHg 54%
    14:00 +32°C° 0 mm 1 mps 707 mmHg 54%
    15:00 +32°C° 0 mm 1 mps 707 mmHg 54%
    16:00 +32°C° 0 mm 1 mps 706 mmHg 55%
    17:00 +31°C° 0.3 mm 1 mps 706 mmHg 63%
    18:00 +29°C° 0.3 mm 1 mps 706 mmHg 71%
    19:00 +28°C° 0.3 mm 1 mps 706 mmHg 79%
    20:00 +27°C° 0.1 mm 1 mps 706 mmHg 81%
    21:00 +25°C° 0.1 mm 1 mps 706 mmHg 83%
    22:00 +24°C° 0.1 mm 1 mps 706 mmHg 85%
    23:00 +23°C° 0.7 mm 2 mps 706 mmHg 87%

    26 July, Friday

    Time Temperature Precipitation Wind Pressure Humidity
    00:00 +21°C° 0.7 mm 2 mps 706 mmHg 88%
    01:00 +20°C° 0.7 mm 2 mps 706 mmHg 90%
    02:00 +20°C° 0.5 mm 2 mps 706 mmHg 90%
    03:00 +20°C° 0.5 mm 1 mps 706 mmHg 89%
    04:00 +20°C° 0.5 mm 1 mps 705 mmHg 89%
    05:00 +21°C° 0.5 mm 1 mps 706 mmHg 88%
    06:00 +22°C° 0.5 mm 1 mps 706 mmHg 88%
    07:00 +23°C° 0.5 mm 1 mps 706 mmHg 87%
    08:00 +24°C° 0 mm 1 mps 707 mmHg 78%
    09:00 +26°C° 0 mm 1 mps 707 mmHg 69%
    10:00 +28°C° 0 mm 1 mps 707 mmHg 60%
    11:00 +28°C° 0.1 mm 1 mps 707 mmHg 59%
    12:00 +29°C° 0.1 mm 1 mps 706 mmHg 58%
    13:00 +29°C° 0.1 mm 1 mps 706 mmHg 58%
    14:00 +29°C° 0.4 mm 1 mps 706 mmHg 58%
    15:00 +29°C° 0.4 mm 1 mps 706 mmHg 59%
    16:00 +29°C° 0.4 mm 1 mps 706 mmHg 60%
    17:00 +27°C° 1.4 mm 1 mps 706 mmHg 70%
    18:00 +25°C° 1.4 mm 1 mps 706 mmHg 80%
    19:00 +23°C° 1.4 mm 2 mps 705 mmHg 90%
    20:00 +21°C° 10 mm 2 mps 706 mmHg 93%
    21:00 +20°C° 10 mm 3 mps 706 mmHg 95%
    22:00 +18°C° 10 mm 3 mps 706 mmHg 98%
    23:00 +18°C° 6 mm 3 mps 707 mmHg 98%
    Show more